Regional Weather Roundup
Issued by NWS Pendleton, OR

Home | Current Version | Previous Version | Text Only | Print | Product List | Glossary On
Versions: 1 2 3 4 5 6 7 8 9 10 11 12 13 14 15 16 17 18 19 20 21 22 23 24 25 26 27 28 29 30 31 32 33 34 35 36 37 38 39 40 41 42 43 44 45 46 47 48 49 50
234
ASUS46 KPDT 091625
RWRPDT
PENDLETON REGIONAL WEATHER ROUNDUP
NATIONAL WEATHER SERVICE PENDLETON OREGON
800 AM PST TUE FEB 9 2016

NOTE: FAIR INDICATES FEW OR NO CLOUDS BELOW 12,000 FEET WITH NO
SIGNIFICANT WEATHER AND/OR OBSTRUCTIONS TO VISIBILITY.

# INDICATES UNOFFICIAL STATION AND DATA

WAZ520-091710-
EAST SLOPES OF WASHINGTON CASCADES

CITY            SKY/WX      TMP DP  RH  WIND    PRES   REMARKS
#CLE ELUM HS    N/A         25  22  88  CALM    30.36F
#CLE ELUM 2NW   N/A         23  23  100 CALM    N/A
#CLE ELUM LAKE  N/A         32  30  92  CALM    30.45S
#CLIFFDEL 2NW   N/A         27  26  96  NW3     N/A
#GLENWOOD       N/A         24  23  96  CALM    30.50R
#MANASTASH CYN  N/A         27  22  81  CALM    30.35S
#NELSON 3SW     N/A         28  27  96  CALM    30.68F
#NILE           N/A         28  27  96  CALM    29.74F
#RONALD 2NW     N/A         30  N/A N/A CALM    30.22F
#SNOWDEN        N/A         32  26  78  CALM    N/A
#TEANAWAY 4NE   N/A         24  23  96  CALM    N/A
#TROUT LAKE 1NE N/A         25  24  96  CALM    30.48R
#TROUT LAKE 1E  N/A         23  22  96  CALM    30.37S
$$

WAZ521-091710-
SIMCOE HIGHLANDS

CITY            SKY/WX      TMP DP  RH  WIND    PRES   REMARKS
#BICKLETON HS   N/A         37  31  79  N5      N/A
#CENTERVILLE 1SWN/A         28  26  92  CALM    30.46R
#GOLDENDALE     N/A         29  28  96  E2      N/A
#GOLDENDALE 1NE N/A         29  25  85  N1      N/A
#GOODNOE HILLS  N/A         35  29  78  W1      30.32R
#LYLE 6NE       N/A         32  31  96  N3      30.43R
$$

WAZ026-091710-
KITTITAS VALLEY

CITY            SKY/WX      TMP DP  RH  WIND    PRES   REMARKS
ELLENSBURG AP   FRZFOG      21  18  88  S3      30.45S VSB 1/4
#ELLENSBURG CWU N/A         22  21  96  CALM    30.48S
#ELLENSBURG 3NE N/A         21  20  96  CALM    30.42F
#ELLENSBURG     N/A         22  22  100 E1      N/A
#ELLENSBURG 1E  N/A         21  N/A N/A CALM    N/A
#KITTITAS 4N    N/A         25  22  88  E1      30.45F
#KITTITAS 3S    N/A         18  17  96  CALM    30.55S
#THORP 6N       N/A         34  31  89  E2      30.50F
$$

WAZ027-091710-
YAKIMA VALLEY

CITY            SKY/WX      TMP DP  RH  WIND    PRES   REMARKS
YAKIMA AIRPORT  SUNNY       30  26  85  CALM    30.46S
YAKIMA-VAGABOND SUNNY       32  29  89  S6      30.42F
#DONALD 2NE     N/A         39  24  54  NW3     29.27F
#GRANDVIEW      N/A         31  29  92  CALM    30.51S
#MABTON         N/A         27  26  96  CALM    30.46S
#MOXEE 2E       N/A         28  28  100 CALM    30.44S
#NACHES 2SW     N/A         33  30  89  CALM    30.42F
#OUTLOOK DOT    N/A         N/A N/A N/A E1      N/A
#SELAH 8E       N/A         33  30  89  W1      N/A
#TERRACE HTS    N/A         27  26  96  CALM    30.45F
#TOPPENISH      N/A         31  29  92  CALM    30.39F
#WEST VALLEY    N/A         29  26  88  CALM    30.47F
#W YAKIMA       N/A         33  30  89  N2      30.48F
#WHITE SWAN 5E  N/A         29  28  96  CALM    30.48F
#WILEY CITY 3W  N/A         33  28  82  CALM    30.40F
$$

WAZ028-091710-
LOWER COLUMBIA BASIN...WASHINGTON

CITY            SKY/WX      TMP DP  RH  WIND    PRES   REMARKS
HANFORD         MOSUNNY     33  29  85  NW8     30.44F
PASCO           SUNNY       27  25  92  CALM    30.48F
PROSSER AWOS    N/A         28  28  100 CALM    30.50S
RICHLAND AWOS   SUNNY       32  32  100 CALM    30.49S
#BENTON CITY    N/A         31  29  92  CALM    30.40
#CONNELL 5N     N/A         31  29  92  CALM    30.47S
#ELTOPIA 6NW    N/A         33  30  89  N2      29.40F
#KAHLOTUS       N/A         29  28  96  S3      30.47S
#KENNEWICK 3S   N/A         32  29  89  CALM    30.48F
#PATERSON       N/A         30  29  96  CALM    30.47F
#PROSSER        N/A         33  30  89  CALM    30.48S
#SAGEMOOR 2W    N/A         30  28  92  CALM    30.32S
#TOUCHET 2S     N/A         25  23  92  CALM    30.47F
#WEST PASCO     N/A         29  26  88  CALM    30.52S
$$

WAZ029-091710-
FOOTHILLS OF THE BLUES...WASHINGTON

CITY            SKY/WX      TMP DP  RH  WIND    PRES   REMARKS
WALLA WALLA AP  SUNNY       33  29  85  CALM    30.43S
#CLYDE 6NW      N/A         29  28  96  CALM    30.47S
#DAYTON SCHOOL  N/A         31  26  81  CALM    30.41F
#LOWDEN 2SE     N/A         25  24  96  CALM    30.44S
#PLEASANT VIEW 1N/A         35  34  96  CALM    30.49F
#PRESCOTT       N/A         31  30  96  CALM    30.48R
#WHITMAN COLLEGEN/A         35  31  85  CALM    30.52F
#WAITSBURG 5S   N/A         34  32  92  CALM    30.57R
#WAITSBURG 8N   N/A         32  20  61  CALM    30.27F
#WALLA WALLA U  N/A         32  30  92  CALM    30.49S
#WHITMAN MISSIONN/A         29  27  92  CALM    30.50S
$$

WAZ030-091710-
BLUE MOUNTAINS...WASHINGTON

CITY            SKY/WX      TMP DP  RH  WIND    PRES   REMARKS
#DIXIE 5SE      N/A         46  37  71  SE1     30.30S
#SKI BLUEWOOD   N/A         34  31  89  CALM    30.39F
$$

ORZ009-041-WAZ024-091710-
COLUMBIA RIVER GORGE

CITY            SKY/WX      TMP DP  RH  WIND    PRES   REMARKS
HOOD RIVER AP   SUNNY       32  32  100 W3      30.45S FOG
THE DALLES AP   SUNNY       30  27  88  CALM    30.48S FOG
#ARLINGTON AIRPON/A         34  32  92  CALM    30.48F
#ARLINGTON HS   N/A          0   0  100 CALM    30.38F
#CELILO DOT     N/A         34  30  85  SW1     N/A
#LYLE           N/A         35  33  92  CALM    30.50R
#MARYHILL 2W    N/A         36  36  100 CALM    N/A
#MOSIER 1S      N/A         32  28  85  CALM    30.43S
#MURDOCK        N/A         34  32  92  CALM    30.53R
#RUFUS DOT      N/A         32  31  96  SE8     N/A

$$

ORZ510-091710-
NORTH CENTRAL OREGON

CITY            SKY/WX      TMP DP  RH  WIND    PRES   REMARKS
#CHENOWITH 1W   N/A         33  33  100 E6      N/A
#COW CYN RST AREN/A         33  32  96  CALM    N/A
#DUFUR 9E       N/A         37  33  85  S5      30.48
#GRASS VALLEY 1SN/A         29  27  92  E1      30.51R
#KENT DOT       N/A         31  27  85  N3      N/A
#MAUPIN SCHOOL  N/A         29  27  92  CALM    30.47S
#MORO SCHOOL    N/A         30  30  100 SW1     30.41S
#SHANIKO 5WSW   N/A         36  32  85  E3      N/A
#SHANIKO 4NW    N/A         37  36  96  S6      30.35F
#TYGH VALLEY 2NEN/A         29  27  92  CALM    30.47S
#WAPANITIA AIRPON/A         29  27  92  CALM    30.49S
#WASCO DOT      N/A         26  24  92  E1      N/A
#WASCO AIRPORT  N/A         32  28  85  E1      N/A
#WASCO 5NE      N/A         32  30  92  CALM    30.47S
$$

ORZ511-091710-
CENTRAL OREGON

CITY            SKY/WX      TMP DP  RH  WIND    PRES   REMARKS
BEND AIRPORT    SUNNY       37  30  75  SE7     30.37S
MADRAS AIRPORT  FRZFOG      28  28  100 S3      30.42S VSB 1/4
PRINEVILLE AP   SUNNY       43  32  65  SE10    30.38S
REDMOND AIRPORT MOSUNNY     28  26  92  VRB3    30.37S
#ASHWOOD SCHOOL N/A         26  25  96  CALM    30.33F
#BEND 6E        N/A         37  30  75  CALM    30.41S
#BEND 1SW       N/A         29  28  96  N1      N/A
#BEND-KIM LN    N/A         34  32  92  S1      30.34S
#LAKE BILLY CHINN/A         32  N/A N/A CALM    30.48R
#MADRAS         N/A         28  28  100 S2      N/A
#POWELL BUTTE 3EN/A         38  31  76  SE2     N/A
#PRINEVILLE 3N  N/A         31  28  88  N2      30.42S
#WARM SPRINGS   N/A         30  28  92  CALM    30.39S

$$


ORZ509-091710-
EAST SLOPES OF OREGON CASCADES

CITY            SKY/WX      TMP DP  RH  WIND    PRES   REMARKS
SISTERS AWOS    N/A         25  23  92  CALM    30.31S
#BLUE BOX PASS  N/A         38  N/A N/A CALM    N/A
#BLACK BUTTE RNCN/A         N/A N/A N/A SE14    30.42F
#CAMP SHERMAN   N/A         25  23  92  CALM    30.58R
#LA PINE 4NW    N/A         20  17  88  CALM    30.50R
#LAVA BUTTE DOT N/A         32  31  96  SE2     N/A
#SISTERS AIRPOR N/A         26  26  100 CALM    30.17S
#SISTERS ODOT   N/A         24  N/A N/A CALM    N/A
#SISTERS 1NW    N/A         23  21  92  CALM    N/A
#SISTERS 3N     N/A         26  20  78  CALM    30.35S
#SUNRIVER       N/A         28  27  96  S1      30.47R
#SUTTLE LK DOT  N/A         23  23  100 SW23G37 N/A    WCI  7
#TUMALO 3W      N/A         36  32  85  NW1     30.25S
#WANOGA BUTTE D N/A         42  21  43  CALM    N/A

$$

ORZ044-091710-
LOWER COLUMBIA BASIN...OREGON

CITY            SKY/WX      TMP DP  RH  WIND    PRES   REMARKS
HERMISTON       SUNNY       29  27  92  S3      30.45S
#BOARDMAN SCHOOLN/A         29  28  96  CALM    30.48F
#BOARDMAN 8SW   N/A         29  28  96  CALM    30.48F
#ECHO 8SW       N/A         29  24  81  CALM    30.46F
#I-84 EX 198 DOTN/A         33  31  92  NE3     N/A
#IONE SCHOOL    N/A         28  17  63  CALM    30.39F
#IRRIGON 4NW    N/A         27  27  100 CALM    N/A
#UMATILLA SCHOOLN/A         26  26  100 CALM    30.51F
#UMATILLA       N/A         31  27  85  CALM    30.42S
$$

ORZ507-091710-
NORTHERN FOOTHILLS OF THE BLUES

CITY            SKY/WX      TMP DP  RH  WIND    PRES   REMARKS
PENDLETON AIRPT PTCLDY      28  27  96  CALM    30.41F FOG
#ADAMS 3WNW     N/A         30  28  92  CALM    30.47F
#ATHENA         N/A         29  28  96  CALM    30.50S
#CAYUSE         N/A         32  31  96  CALM    30.46F
#HELIX SCHOOL   N/A         30  28  92  CALM    30.46F
#HELIX 3N       N/A         35  32  89  N1      30.35S
#HELIX 6SW      N/A         31  29  92  CALM    30.39
#HOLDMAN 5SE    N/A         31  29  92  CALM    30.39F
#HOLDMAN 6E     N/A         31  29  92  CALM    30.27F
#M-F GROVE ELEM N/A         33  29  85  CALM    30.40F
#M-FREEWATER 5SEN/A         30  28  92  CALM    30.41S
#PENDLETON DNTN N/A         27  21  78  CALM    30.46S
#PDT AQUATIC CTRN/A         26  19  74  CALM    30.43S
#PDT SUNRIDGE   N/A         25  24  96  CALM    30.45F
#PENDLETON 7NW  N/A         30  27  88  CALM    N/A
#PILOT ROCK     N/A         31  24  75  CALM    30.39F
#TUTUILLA       N/A         27  25  92  CALM    30.46F
#UMAPINE 2E     N/A         32  31  96  CALM    30.42S
#WESTON SCHOOL  N/A         35  31  85  CALM    30.35F

$$

ORZ508-091710-
SOUTHERN FOOTHILLS OF THE BLUES

CITY            SKY/WX      TMP DP  RH  WIND    PRES   REMARKS
LEXINGTON       SUNNY       32  30  92  CALM    30.44F
#CONDON SCHOOL  N/A         36  34  92  N5      30.30F
#CONDON 5W      N/A         34  31  89  E7      30.33F
#FOSSIL SCHOOL  N/A         28  27  96  CALM    30.29F
#HEPPNER EOC    N/A         31  28  88  E5      30.39F
#HEPPNER 4NE    N/A         33  30  89  E2      30.42
#LEXINGTON 2SE  N/A         29  26  88  CALM    30.37F
#MIKKALO        N/A         35  32  89  CALM    30.50S
#OLEX 4N        N/A         32  30  92  CALM    30.40F
#RUGGS 5NE      N/A         39  38  96  CALM    30.52S
#RUGGS 2SW      N/A         33  30  89  CALM    30.46

$$

ORZ502-503-091710-
BLUE MOUNTAINS

CITY            SKY/WX      TMP DP  RH  WIND    PRES   REMARKS
MEACHAM         SUNNY       34  27  75  VRB3    30.40F
#BATTLE MTN DOT N/A         32  32  100 SE9     N/A
#HEPPNER 15SE   N/A         36  28  72  N5      30.30S
#LADD CYN SMT   N/A         31  28  88  SE20    N/A    WCI 19
#LADD CREEK ODOTN/A         33  31  92  SW10    N/A
#LONG CREEK HS  N/A         33  32  96  CALM    N/A
#N POWDER DOT   N/A         29  28  96  S2      N/A
#PIKES PEAK     N/A         44  33  65  CALM    27.99S
#TOLLGATE       N/A         32  29  89  E1      30.22F
#TROY SCHOOL    N/A         31  29  92  W1      30.42F
#UKIAH          N/A         23  22  96  CALM    30.45S
#WESTON 4E      N/A         42  31  65  E13     30.35S WCI 35
$$

ORZ505-091710-
JOHN DAY BASIN

CITY            SKY/WX      TMP DP  RH  WIND    PRES   REMARKS
JOHN DAY        PTCLDY      39  31  73  E9      30.42F
#DAYVILLE SCHOOLN/A         30  26  85  CALM    30.37S
#MITCHELL       N/A         31  31  100 CALM    30.50F
#MITCHELL 8NW   N/A         37  31  79  CALM    30.56F
#MONUMENT HS    N/A         28  26  92  CALM    30.39S
#MT. VERNON 5SE N/A         49  32  52  S7      30.37R
#SPRAY SCHOOL   N/A         32  N/A N/A CALM    N/A
#WINLOCK        N/A         45  31  58  NW3     30.32S
$$

ORZ506-091710-
OCHOCO AND JOHN DAY HIGHLANDS

CITY            SKY/WX      TMP DP  RH  WIND    PRES   REMARKS
#BUCK CREEK DOT N/A         31  31  100 SE14    N/A    WCI 21
#HORSE RIDGE DO N/A         38  29  70  SE8     N/A
#KEYES SMT DOT  N/A         37  28  70  NE17    N/A    WCI 27
#PAULINA SCHOOL N/A         28  25  88  CALM    30.36S
#PINE MTN OBS   N/A         41  27  57  S9      N/A
#SENECA         N/A         11  N/A N/A CALM    N/A
#SENECA 9NW     N/A         13  11  91  CALM    30.61S
$$

ORZ049-091710-
GRANDE RONDE VALLEY

CITY            SKY/WX      TMP DP  RH  WIND    PRES   REMARKS
LA GRANDE       PTCLDY      37  28  70  S23G31  30.48S WCI 26
#COVE           N/A         32  32  100 S1      30.50S
#COVE SCHOOL    N/A         32  30  92  CALM    30.47F
#COVE 6NW       N/A         34  31  89  SE7     30.40S
#ELGIN 3N       N/A         27  22  81  CALM    30.44S
#ELGIN 1E       N/A         29  25  85  CALM    N/A
#IMBLER SCHOOL  N/A         33  30  89  SW5     30.43S
#ISLAND CITY 4N N/A         40  39  96  CALM    30.24R
#LADD CYN DOT   N/A         35  33  92  S16     N/A    WCI 25
#UNION 1S       N/A         35  32  89  E12     30.48F WCI 27
$$

ORZ050-091710-
WALLOWA COUNTY

CITY            SKY/WX      TMP DP  RH  WIND    PRES   REMARKS
JOSEPH AIRPORT  PTCLDY      23  21  92  CALM    30.46F
#ENTERPRISE AP  N/A         27  24  88  CALM    30.35F
#ENTERPRISE HS  N/A         23  21  92  CALM    30.44F
#IMNAHA SCHOOL  N/A         31  29  92  S2      30.46F
#JOSEPH 3N      N/A         21  17  84  CALM    30.43F
#JOSEPH 3W      N/A         34  28  78  CALM    30.22F
#LOSTINE        N/A         22  21  96  CALM    30.44F
#MT HOWARD 8000 N/A         51  -18  5  CALM    30.52S
#PROMISE 1S     N/A         33  29  85  CALM    30.64F
#WALLOWA SCHOOL N/A         21  20  96  CALM    30.45F



$$



USA.gov is the U.S. government's official web portal to all federal, state and local government web resources and services.